Regional Weather Roundup
Issued by NWS

Home | Current Version | Previous Version | Graphics & Text | Print | Product List | Glossary On
Versions: 1 2 3 4 5 6 7 8 9 10 11 12 13 14 15 16 17 18 19 20 21 22 23 24 25 26 27 28 29 30 31 32 33 34 35 36 37 38 39 40 41 42 43 44 45 46 47 48 49 50
000
ASUS43 KTOP 020759
RWRKS

WEATHER ROUNDUP FOR KANSAS
NATIONAL WEATHER SERVICE GOODLAND KS
300 AM CDT THU OCT 02 2014

NOTE:  "FAIR" INDICATES FEW OR NO CLOUDS BELOW 12,000 FEET WITH NO
SIGNIFICANT WEATHER AND/OR OBSTRUCTIONS TO VISIBILITY.

KSZ001>006-013>018-027>032-041>047-020900-
NORTHWEST KANSAS

CITY           SKY/WX    TMP DP  RH WIND       PRES   REMARKS
GOODLAND       CLOUDY    48  45  89 N17       29.98R
HAYS           CLOUDY    61  48  63 NW22G28   29.81R
HILL CITY      MOCLDY    58  50  75 NW22G31   29.88R
RUSSELL        MOCLDY    63  60  90 NW7       29.78R
$$

KSZ061>065-074>080-084>089-020900-
SOUTHWEST KANSAS

CITY           SKY/WX    TMP DP  RH WIND       PRES   REMARKS
DODGE CITY     MOCLDY    58  49  72 N17G28    29.82R
GARDEN CITY    CLOUDY    55  48  77 N22       29.87R
GREAT BEND     MOCLDY    64  61  88 NW10      29.77R
LIBERAL        PTCLDY    57  45  62 N21       29.82S
$$

KSZ066>073-081>083-090>101-020900-
SOUTHEAST KANSAS

CITY           SKY/WX    TMP DP  RH WIND       PRES   REMARKS
CHANUTE        LGT RAIN  72  70  93 S7        29.73S
COFFEYVILLE    TSTM      72  69  90 S18       29.75R
HUTCHINSON     CLEAR     65  62  90 CALM      29.69F FOG
MEDICINE LODGE   N/A     64  62  93 CALM      29.67F
NEWTON         CLEAR     63  54  72 E5        29.71F
PARSONS        TSTM      73  70  90 S15G32    29.74R VSB 1
WICHITA INTL   PTCLDY    69  60  73 S5        29.68F
WICHITA JABRA  CLEAR     71  63  75 S8        29.68F
WINFIELD       CLEAR     70  65  84 SE3       29.70F
$$

KSZ007>012-019>026-033>040-048>060-102>105-020900-
NORTHEAST KANSAS

CITY           SKY/WX    TMP DP  RH WIND       PRES   REMARKS
CONCORDIA      PTCLDY    60  60 100 CALM      29.74R
EMPORIA        PTCLDY    65  64  97 E5        29.70F FOG
LAWRENCE       PTCLDY    64  63  96 E5        29.72F FOG
MANHATTAN      CLEAR     64  63  96 N3        29.70F
OLATHE IND     MOCLDY    64  63  96 E7        29.73F
OLATHE EXE     MOCLDY    64  62  93 E5        29.73F
SALINA         CLEAR     64  61  90 CALM      29.70F
TOPEKA BILLARD CLEAR     66  66 100 E6        29.71F
TOPEKA FORBES  CLEAR     65  64  97 E5        29.70F
$$



USA.gov is the U.S. government's official web portal to all federal, state and local government web resources and services.